Wind_Speed
37 37 34 29 29 33 36 35 34 34 34 34 35 34 34 33 29 28 32 35 36 37 34 32 33 29 28 31 33 29 27 26 25 25 24 23 23 23 23 23 24 24 25 26 27 28 29 30 30 31 32 32 33 34 34 34 34 35 35 35 36 37 38 38 39 40 41 42 43 43 44 45 45 45 44 44 42 41 41 42 43 43 44 44 45 45
38 38 32 29 33 36 36 35 36 36 36 36 36 36 36 34 32 32 35 37 37 37 35 32 32 29 29 32 30 27 27 26 26 26 24 23 23 23 24 25 26 27 28 29 29 30 31 32 33 34 34 34 34 35 35 35 36 36 37 37 38 39 39 40 41 42 44 45 45 46 47 47 47 47 47 47 47 45 44 44 44 45 46 47 48 48
40 37 32 33 37 37 37 37 38 38 38 38 37 38 37 35 35 35 36 37 37 37 35 33 32 29 30 30 29 27 27 27 28 28 26 24 24 25 27 28 29 30 31 32 32 33 33 34 35 35 35 36 36 36 37 37 38 39 39 40 40 41 42 42 43 44 45 46 47 48 49 49 49 48 49 49 50 49 48 46 46 46 47 48 49 50
41 38 34 36 38 38 39 39 39 40 39 39 39 39 37 34 36 38 37 37 37 36 35 34 33 31 29 29 28 28 28 29 30 30 28 27 27 28 30 31 32 32 33 34 34 35 36 36 36 36 37 37 38 39 39 40 41 41 42 43 44 44 45 44 44 45 45 46 47 48 48 49 49 50 50 51 52 52 51 49 48 49 49 50 51 52
42 39 37 37 38 39 41 40 40 40 39 40 40 39 37 36 38 39 39 38 38 37 35 34 34 32 29 29 29 28 29 30 31 31 30 31 32 33 33 33 33 34 34 35 35 36 37 37 37 38 39 40 41 41 42 42 44 45 46 47 47 47 46 46 45 45 45 46 46 46 47 47 48 50 51 52 53 53 52 51 50 51 52 53 53 53
42 39 38 38 39 40 41 41 39 38 39 41 40 39 39 39 40 41 41 40 39 37 36 35 35 33 30 29 29 29 30 31 32 32 33 34 35 36 35 35 35 35 35 36 36 37 38 38 39 40 41 42 43 44 45 46 47 48 49 50 49 49 48 47 46 45 45 45 45 45 46 47 48 50 52 53 55 55 54 53 52 53 54 55 55 55
42 39 39 40 40 41 42 41 39 38 41 43 41 40 40 41 41 42 42 41 40 38 36 35 36 35 33 32 30 29 31 33 33 34 35 37 37 37 37 37 37 37 37 38 38 39 39 40 41 43 44 45 46 48 49 50 50 50 50 51 51 51 50 48 47 46 45 45 45 45 46 48 49 51 52 54 56 58 57 56 55 55 55 56 57 57
41 40 41 42 42 42 42 41 40 41 44 44 41 40 41 41 42 42 42 42 40 38 37 36 36 36 36 36 34 33 34 34 34 35 37 38 38 38 38 38 38 39 39 40 40 41 42 43 44 45 47 48 50 51 52 52 53 52 52 52 52 52 51 49 48 48 47 47 46 47 48 49 50 51 53 55 56 58 60 60 58 57 57 58 59 59
43 43 43 43 43 43 41 41 42 43 44 44 42 40 40 41 42 42 41 42 41 39 38 37 36 37 38 39 40 40 38 36 35 36 38 38 38 38 38 39 39 40 41 42 43 44 45 46 47 48 50 52 53 53 53 53 54 55 54 54 53 53 52 51 50 49 49 49 49 49 50 51 52 53 54 55 57 59 61 62 62 61 60 60 61 61
46 45 44 44 44 43 41 42 42 43 43 43 41 40 40 40 41 41 41 42 42 40 38 37 37 39 42 44 45 44 42 41 40 39 39 38 38 38 39 40 41 42 43 44 45 46 47 48 50 51 53 54 54 54 54 54 55 55 56 57 57 56 56 54 52 51 51 51 51 52 52 53 54 55 56 57 58 60 62 64 65 65 64 63 63 64
47 46 45 44 44 43 42 42 42 42 43 41 40 39 39 39 40 41 42 43 43 41 38 37 38 41 45 48 48 46 45 45 45 44 43 40 39 40 41 42 43 44 45 46 47 48 49 51 52 53 53 54 55 56 56 56 56 57 58 60 61 61 60 58 56 54 53 53 54 55 55 56 57 57 58 59 60 62 63 65 67 68 68 66 65 65
47 46 45 44 43 43 41 40 40 40 40 39 39 39 39 40 41 42 43 44 44 41 39 40 41 44 48 49 48 48 48 48 48 48 47 46 45 45 46 46 47 48 49 49 50 51 51 52 53 54 54 55 55 57 58 59 60 61 62 62 63 64 64 62 60 58 57 57 57 57 58 58 59 59 60 61 61 63 65 67 68 70 70 70 70 69
45 44 43 43 41 40 38 37 37 37 38 38 39 40 40 42 43 44 45 44 43 41 41 42 44 47 49 48 47 48 48 49 49 49 50 50 51 52 52 52 52 53 53 53 53 53 53 53 54 55 56 56 57 58 60 62 64 65 65 65 65 65 65 64 63 62 61 60 60 59 60 60 60 61 61 62 63 64 65 68 69 71 72 74 74 74
42 41 40 40 38 36 36 35 35 37 38 40 41 42 43 44 45 45 44 43 42 42 42 44 47 50 50 48 48 48 48 49 50 50 51 52 53 54 54 55 55 55 55 55 55 55 55 55 56 56 56 57 58 60 63 65 67 67 67 66 65 65 65 65 65 65 64 63 62 61 61 61 61 62 62 63 64 65 66 67 69 72 74 76 77 78
41 39 37 37 36 35 35 36 37 39 40 41 42 43 44 44 43 43 42 43 44 43 44 46 49 50 50 50 50 50 50 50 50 51 52 53 54 54 54 54 54 55 56 56 56 56 57 58 58 58 58 58 60 63 65 67 68 68 68 67 66 66 66 66 67 67 67 65 64 62 62 62 62 63 63 64 65 66 67 68 70 72 74 76 78 79
39 37 35 35 35 35 36 37 38 40 41 41 42 43 43 41 40 41 43 44 45 46 48 50 51 51 51 52 52 52 53 52 52 53 53 53 54 53 53 53 54 55 56 56 57 58 59 60 60 60 60 62 64 66 67 68 69 69 68 68 68 68 68 68 69 68 67 66 65 64 64 64 64 65 65 66 67 68 69 71 72 73 75 76 78 80
39 37 35 34 35 35 37 38 38 39 41 41 41 41 40 38 39 42 44 46 48 51 52 52 53 52 52 54 54 54 55 55 55 55 54 54 53 53 53 54 55 56 56 57 58 59 60 61 61 62 63 66 68 69 69 70 70 69 69 70 70 70 70 69 69 68 68 67 67 68 68 68 68 68 68 68 69 70 71 72 72 73 75 77 79 80
41 39 37 36 37 37 37 37 38 38 39 40 39 38 37 39 41 44 47 49 50 53 54 54 55 55 56 57 57 56 57 57 56 56 55 54 53 53 54 55 56 56 57 57 58 59 61 62 64 66 68 70 71 71 70 70 70 70 70 71 71 70 69 69 69 69 69 69 70 70 71 71 71 71 71 71 71 72 72 73 74 74 75 76 78 80
42 42 41 40 39 38 38 38 39 39 39 38 37 38 39 42 45 47 49 50 52 55 58 58 58 57 58 59 58 58 58 57 56 54 53 53 53 54 54 55 56 56 57 58 59 62 64 66 68 70 72 72 72 71 71 70 71 71 71 71 71 70 69 69 69 70 70 71 72 73 73 73 74 73 73 73 72 72 73 75 75 75 75 76 77 79
45 45 45 44 42 41 41 41 40 39 37 37 39 41 43 46 48 49 51 53 55 59 61 61 61 60 59 60 59 57 55 53 53 53 53 54 55 54 54 54 56 58 60 62 64 66 68 69 71 71 71 71 71 70 70 71 71 71 71 71 70 70 70 70 70 71 71 72 73 73 73 73 73 73 72 72 71 72 73 76 77 77 78 80 81 82
47 47 46 46 45 44 44 41 39 38 38 40 43 45 46 48 50 51 54 57 59 61 62 63 64 62 62 63 60 55 52 51 52 53 54 54 54 54 55 57 61 63 65 66 67 69 70 71 71 71 71 71 71 72 72 72 72 71 71 70 69 69 70 70 71 71 72 72 72 72 72 72 72 72 72 73 74 76 78 79 80 81 82 83 83 83
47 48 48 47 47 46 43 41 40 41 42 44 45 47 48 49 52 55 58 60 60 61 61 62 64 66 66 65 60 55 53 53 53 53 54 54 55 57 60 64 67 68 68 69 69 71 72 73 73 73 74 74 74 74 74 73 73 72 71 70 70 70 71 71 72 72 72 72 72 72 73 73 74 75 76 77 79 79 80 80 80 81 82 82 83 83
48 49 49 48 47 45 44 43 43 44 45 47 48 49 51 53 56 59 60 60 59 60 61 62 67 69 66 61 56 54 55 55 55 55 56 58 61 64 68 70 71 71 71 71 72 73 74 75 75 75 75 75 75 75 75 74 73 72 71 70 70 71 71 72 72 72 73 73 74 74 75 76 76 77 77 78 78 78 79 79 80 80 81 82 84 85
48 49 48 48 47 46 46 47 47 47 49 50 50 52 54 57 58 58 59 59 59 63 65 64 66 66 60 55 54 56 57 57 58 59 61 63 66 69 72 73 72 73 73 74 74 75 76 77 77 77 76 75 75 75 76 75 74 72 71 71 71 71 71 71 72 72 73 74 75 75 76 77 77 77 78 78 79 79 80 81 82 83 84 85 86 87
47 47 47 47 49 50 51 51 51 51 51 52 53 55 57 58 58 58 59 59 63 67 65 61 62 61 56 56 58 59 59 60 62 64 65 66 69 71 73 73 74 75 76 76 77 77 78 78 78 77 76 75 75 76 75 74 73 72 72 72 72 72 72 72 73 73 74 74 75 76 77 77 78 79 79 80 81 82 83 84 85 85 86 87 89 89
47 48 49 50 52 54 55 55 53 52 52 54 56 57 57 58 58 59 59 62 67 69 63 59 62 61 57 58 61 62 62 63 65 66 66 68 70 72 73 75 76 77 77 78 78 78 78 78 77 76 76 76 76 76 75 74 73 73 73 73 73 73 73 73 74 74 75 75 76 77 78 79 79 80 81 82 82 84 85 86 87 88 89 90 90 91
50 51 52 52 54 55 55 56 57 57 58 60 60 60 60 60 60 61 64 67 68 66 62 59 60 61 59 60 63 66 65 65 66 67 68 70 72 73 74 76 77 78 78 77 77 77 76 76 76 76 75 75 75 75 75 74 74 74 74 73 73 73 74 74 75 76 76 77 78 78 79 80 80 81 82 83 84 85 86 87 89 90 91 91 91 92
51 52 52 53 55 56 57 59 60 60 61 61 60 62 63 64 64 65 68 68 63 61 62 61 61 64 62 61 66 69 68 68 69 69 70 71 72 74 75 76 76 76 75 75 75 75 75 75 74 73 73 72 73 74 73 73 73 73 73 73 74 74 75 76 76 77 78 78 79 79 80 81 81 82 83 84 85 87 88 89 90 91 91 91 92 92
54 55 56 58 61 62 62 62 61 59 58 57 59 63 64 65 67 67 67 66 63 65 68 66 66 66 62 62 68 71 69 70 70 69 70 70 71 73 74 74 74 73 73 73 73 73 72 71 71 70 70 71 71 72 71 71 72 72 73 73 74 75 75 76 77 77 78 79 79 80 81 82 83 84 85 86 87 88 89 90 90 90 90 90 90 89
59 61 62 62 64 64 63 63 62 60 60 61 62 65 66 68 70 70 68 67 68 69 69 68 69 67 62 64 70 70 69 68 67 68 70 70 72 73 73 73 73 73 72 72 70 70 69 69 69 68 68 68 69 70 70 71 72 72 73 73 74 75 76 77 77 78 79 79 80 81 82 83 84 85 86 87 88 89 89 89 89 88 87 87 85 84
61 61 62 62 62 63 64 63 61 61 62 64 66 68 70 72 72 72 70 69 68 68 66 67 70 67 63 65 68 69 69 69 69 70 72 72 74 74 73 73 72 71 71 70 69 68 68 67 67 67 67 67 69 70 71 71 72 72 73 73 74 75 76 77 78 79 79 80 81 82 83 84 85 87 88 88 88 87 86 85 84 83 81 80 78 77
63 64 65 64 64 66 66 64 63 62 62 65 71 74 74 74 73 72 71 68 66 66 66 69 70 66 64 66 68 69 70 70 71 72 72 73 74 73 72 71 70 69 69 68 68 67 67 67 67 67 67 68 69 70 71 71 72 72 73 74 75 76 77 77 78 79 80 81 82 83 84 86 87 87 87 86 85 84 82 80 78 76 74 72 71 69
65 66 66 66 66 67 66 66 65 63 64 70 76 75 71 69 69 69 69 66 63 63 65 67 67 65 65 68 69 69 70 71 72 72 72 73 72 71 69 68 68 67 66 66 66 66 67 67 66 66 66 67 68 70 71 71 72 72 73 74 75 76 77 78 79 80 81 82 83 84 85 86 86 86 85 83 81 79 77 74 72 70 68 66 65 64
68 68 68 67 67 68 68 67 65 65 70 76 77 71 67 67 67 68 68 65 63 63 65 66 67 67 69 70 70 70 71 71 72 72 71 71 70 68 67 66 66 65 65 66 66 66 65 65 65 65 66 67 69 69 70 71 71 72 74 75 76 77 78 79 80 82 83 84 85 85 86 85 84 83 81 79 76 74 71 69 66 65 63 62 62 62
70 69 68 66 66 67 67 67 67 71 75 77 75 72 71 71 71 71 70 67 64 64 66 68 69 70 69 69 70 71 71 71 70 69 68 67 66 65 64 65 65 65 65 65 65 65 64 64 65 66 67 68 68 69 70 71 73 74 76 77 78 79 80 81 82 83 84 85 85 85 84 83 81 79 76 73 70 68 66 64 63 62 62 62 62 62
68 66 65 65 66 68 70 71 73 76 76 76 77 78 76 75 73 72 70 67 66 67 69 70 70 69 69 69 70 70 69 67 66 65 64 64 64 65 66 66 66 66 66 65 65 65 65 65 66 67 68 68 69 70 72 74 75 76 77 78 79 80 81 82 83 84 84 84 84 83 81 79 76 72 69 67 64 63 62 61 61 62 62 63 63 64
67 67 67 68 71 73 74 74 75 76 77 79 80 77 75 73 71 69 70 70 69 68 70 72 71 69 69 69 68 66 65 65 65 64 63 64 65 67 67 66 66 66 66 65 65 65 66 66 67 68 69 71 72 73 75 76 77 78 79 80 81 81 82 83 83 84 83 82 81 79 76 73 69 66 64 62 61 61 61 61 62 63 64 64 65 66
69 71 72 73 75 75 75 75 75 76 78 79 76 73 71 71 69 69 72 72 70 69 71 72 71 70 68 67 66 66 66 68 67 65 64 66 67 67 67 66 66 66 65 65 66 66 67 68 69 71 72 73 74 76 77 78 80 80 81 81 82 82 83 83 82 81 80 78 76 73 70 67 64 62 61 60 61 61 62 63 64 65 66 66 66 67
74 76 76 76 76 76 75 75 75 76 77 77 74 70 70 70 68 68 72 73 70 68 69 69 69 69 68 68 68 68 69 69 67 64 65 68 67 66 66 66 66 66 66 66 67 68 70 71 72 73 75 76 77 78 80 81 81 81 81 81 82 81 81 80 79 77 75 73 70 67 65 62 61 60 60 60 61 62 63 64 65 66 67 67 68 68
78 79 80 79 77 75 73 72 72 72 74 74 73 71 69 69 69 70 73 74 70 66 67 69 70 70 69 69 69 68 67 66 65 64 66 67 66 65 66 66 66 67 68 69 70 71 73 74 75 76 77 78 79 80 81 81 81 81 80 80 79 79 77 76 74 72 69 67 65 63 61 60 60 60 60 61 62 63 64 65 66 67 67 68 68 68
80 81 81 79 77 75 73 71 71 72 73 73 72 70 68 68 71 71 72 71 69 68 70 70 70 70 69 68 67 66 65 64 64 65 66 66 66 66 66 67 69 70 71 72 73 74 75 76 78 79 79 80 81 81 81 80 79 78 78 77 76 74 73 71 69 67 65 63 61 60 59 59 59 60 61 62 62 63 64 65 66 67 68 68 68 69
79 79 78 77 75 74 72 70 71 74 74 70 68 67 66 68 72 72 70 70 70 69 68 67 67 68 68 68 67 66 65 65 66 67 67 67 67 67 68 70 71 72 73 74 75 76 77 79 79 80 80 80 80 80 78 77 76 74 73 72 70 69 68 66 64 62 61 60 59 59 58 59 60 60 61 62 63 63 64 65 66 67 68 68 68 68
76 75 76 76 74 72 71 71 73 76 72 66 65 67 68 69 71 71 69 69 69 67 66 65 66 67 68 67 66 65 64 65 66 67 67 68 68 69 71 72 73 74 75 76 77 78 79 79 80 80 80 80 78 77 75 73 70 69 67 66 65 64 63 61 60 58 58 57 57 58 58 59 60 61 61 62 63 63 64 65 66 66 66 66 66 66
75 75 74 73 73 72 73 74 75 75 70 66 67 69 68 68 68 67 67 67 66 66 66 66 66 66 66 66 65 64 64 64 65 66 67 68 70 71 73 74 75 76 77 78 78 79 79 79 80 79 79 77 74 71 69 66 64 62 62 61 60 59 58 57 56 56 56 57 57 58 58 59 60 61 61 62 62 63 63 64 64 64 65 65 65 65
72 71 70 70 71 71 72 73 73 72 69 67 66 66 66 66 66 65 65 65 65 66 66 65 65 65 65 64 64 64 64 65 66 67 69 70 72 73 74 75 76 77 78 78 79 79 78 79 78 77 74 70 67 64 61 59 58 57 56 56 56 55 54 54 55 55 56 57 57 58 58 59 60 60 61 62 62 62 63 63 63 64 64 64 64 63
66 66 66 67 68 69 70 70 69 67 65 64 64 64 65 65 64 63 64 64 65 66 66 65 64 64 63 63 64 65 66 67 68 70 71 72 73 74 75 76 77 77 77 77 77 77 76 75 73 69 65 62 59 56 55 54 53 52 52 53 53 53 53 53 54 55 55 56 57 57 58 59 60 61 61 62 62 62 63 63 63 63 63 62 62 61
63 63 64 66 66 66 67 67 65 64 63 63 63 63 62 63 63 64 65 65 65 66 66 65 64 64 64 65 66 67 68 69 70 72 73 73 74 74 75 75 75 75 74 74 73 71 70 67 64 60 57 54 52 51 50 50 50 50 51 51 51 52 52 53 53 54 55 56 57 57 58 59 60 61 62 62 62 62 62 62 62 61 61 60 60 59
61 62 63 65 65 65 65 64 63 63 62 60 60 61 62 63 64 65 66 66 66 66 65 65 65 66 66 67 69 70 70 71 72 73 73 73 74 74 74 73 71 70 69 67 65 63 62 59 56 53 50 48 48 48 48 49 49 50 50 50 50 51 52 52 53 54 55 56 57 58 58 59 60 60 61 61 61 61 61 61 60 59 59 58 57 56
61 62 62 63 63 62 62 62 61 59 59 59 61 62 63 64 65 66 67 67 67 66 66 67 67 68 69 70 71 72 72 72 72 72 72 72 72 71 69 67 65 63 61 60 58 57 55 53 50 48 46 46 47 48 48 48 49 48 48 48 49 51 51 52 53 54 54 55 56 56 57 57 58 59 59 59 59 59 59 58 58 57 55 55 54 54
59 59 58 58 59 59 59 58 57 58 59 61 62 63 64 64 66 68 68 68 68 67 67 68 69 71 72 72 72 71 70 69 69 69 69 69 67 64 62 59 57 56 55 54 53 52 51 49 48 47 46 46 47 47 46 46 46 46 47 48 49 51 51 52 52 53 53 54 54 55 55 56 56 57 57 57 56 56 56 55 55 54 53 52 52 53
54 53 53 55 58 59 58 58 59 60 61 61 61 63 64 66 67 69 69 67 67 66 67 69 71 72 71 70 69 68 67 66 65 64 64 62 59 57 55 53 52 51 50 50 50 49 48 48 47 46 46 45 45 44 44 44 45 45 46 48 49 50 51 51 52 52 53 53 54 54 54 54 55 55 55 55 54 54 53 52 52 52 52 52 52 53
Wind_Direction
274 274 275 280 279 273 272 274 278 280 281 281 281 281 282 284 286 287 282 280 280 280 281 282 282 285 287 284 282 284 284 282 279 277 277 277 278 281 283 285 286 287 287 287 286 285 284 283 282 281 281 280 280 280 280 281 281 281 281 281 281 282 282 282 282 282 281 281 281 281 281 281 281 280 278 275 272 270 270 269 269 270 270 270 269 269
274 273 277 278 273 271 273 277 279 280 280 280 280 280 281 283 284 282 279 279 278 278 279 279 278 281 281 279 280 281 280 278 277 276 277 278 280 284 287 288 288 288 288 286 285 283 282 281 280 280 280 281 281 281 281 282 282 282 282 281 281 281 281 281 281 280 279 279 279 279 279 279 279 278 277 275 273 271 270 269 269 269 269 269 269 269
273 274 276 274 271 274 277 278 279 279 279 280 280 279 279 282 282 279 277 276 276 277 279 279 278 278 276 276 278 279 279 279 279 280 282 283 285 288 289 290 289 288 287 285 284 282 281 280 280 280 281 282 282 282 282 282 282 282 282 281 281 281 282 282 282 281 279 278 277 277 276 277 277 275 274 273 273 273 272 270 269 269 269 269 268 268
273 274 274 273 274 277 277 278 279 279 279 279 279 278 281 283 280 278 277 277 277 277 279 280 279 277 274 275 277 278 280 281 282 284 285 287 288 288 288 288 287 286 285 283 282 281 280 279 279 280 281 282 282 282 282 282 282 282 282 282 283 283 283 284 284 282 280 279 277 275 274 274 273 273 272 271 271 272 272 272 271 271 270 268 267 267
272 273 273 275 276 277 277 277 278 278 278 278 278 280 282 281 278 277 278 277 276 276 276 278 280 279 276 276 277 278 279 280 281 283 285 287 287 287 287 286 285 284 283 282 281 280 279 279 280 281 282 282 282 282 283 283 283 284 284 284 284 285 286 286 286 284 282 279 277 274 272 272 271 271 270 269 269 270 271 271 272 272 272 270 268 267
271 273 275 276 276 276 276 277 278 279 278 276 277 280 281 279 278 277 277 276 275 275 276 277 280 282 279 275 276 278 279 278 279 282 284 285 286 286 286 286 285 284 283 282 280 279 278 279 280 282 282 283 283 283 283 283 284 285 285 285 285 286 288 289 288 285 282 279 277 274 271 270 270 271 270 269 268 268 269 270 270 272 272 272 270 269
273 276 276 275 274 275 275 277 279 278 275 274 276 279 280 279 278 277 276 275 273 273 275 276 279 284 285 280 276 275 273 274 277 281 283 284 285 286 286 286 285 284 283 282 280 280 280 280 281 282 283 284 284 285 285 285 285 285 285 285 286 287 289 291 290 287 283 279 276 273 270 269 269 270 270 270 269 268 267 267 268 269 271 271 270 270
275 276 275 274 275 275 276 277 277 275 274 275 278 279 279 278 277 276 274 273 272 272 274 276 278 285 290 287 282 276 271 273 277 280 281 283 285 286 285 285 285 284 284 283 282 282 282 283 283 283 284 285 286 286 286 287 288 287 287 287 288 289 291 292 291 288 285 281 277 273 270 268 268 268 269 269 269 268 267 266 265 266 268 269 270 270
274 274 274 274 274 275 276 276 275 274 275 277 278 278 277 276 274 274 273 271 271 272 275 278 280 285 290 289 284 281 279 279 279 280 282 284 284 284 284 285 284 283 283 283 283 284 284 284 284 285 286 286 286 286 287 288 289 290 291 292 292 293 294 293 291 288 284 281 278 275 272 270 269 268 268 268 268 268 268 267 266 265 265 266 268 268
272 273 273 273 273 275 275 274 274 275 276 277 277 277 276 274 273 272 271 271 271 273 278 281 283 286 288 286 284 285 286 286 285 285 285 285 284 284 284 284 283 282 283 283 284 284 284 284 284 284 285 285 286 286 287 289 290 292 294 295 295 295 294 293 291 287 283 280 278 275 274 272 271 270 269 269 269 269 268 268 267 267 266 265 266 267
271 272 271 272 272 273 272 273 274 275 275 276 276 275 273 271 271 270 270 270 270 276 282 283 283 283 283 284 286 288 290 291 292 292 291 289 287 285 284 283 282 282 282 282 283 282 282 282 283 284 285 287 288 289 290 291 292 293 294 295 295 295 294 293 290 286 283 280 278 276 274 273 273 272 272 271 270 270 269 269 268 268 267 266 265 266
269 269 269 269 270 270 271 272 272 273 274 274 273 272 271 270 269 268 268 268 271 279 284 283 280 280 280 283 287 290 293 295 295 295 294 294 292 290 288 286 285 284 284 284 284 284 283 284 286 287 288 289 290 290 291 292 293 294 294 294 294 293 293 292 289 286 283 281 279 277 276 275 274 274 273 272 271 270 269 269 269 268 268 267 267 267
267 267 266 267 267 269 270 270 271 272 272 271 270 269 268 268 267 267 268 270 275 279 281 280 280 279 280 283 287 290 293 294 293 294 294 294 293 292 290 290 289 289 289 289 288 287 286 286 287 288 289 289 290 291 292 293 294 294 293 293 292 291 290 289 288 285 283 282 280 279 277 276 275 274 273 271 270 269 268 268 268 269 269 269 268 268
264 263 263 265 266 267 268 270 271 270 269 269 268 268 268 268 268 270 273 274 275 276 276 278 278 279 283 286 288 289 289 289 290 290 291 290 289 289 289 290 291 291 291 290 289 288 287 287 288 288 288 289 290 291 292 293 293 293 292 291 290 289 288 287 286 285 284 283 282 280 278 276 275 274 272 271 270 269 269 268 268 269 269 270 270 270
262 261 261 263 264 266 267 268 267 266 267 267 267 268 268 269 271 273 274 273 273 274 276 277 278 281 285 288 288 288 287 287 287 286 285 285 285 286 287 288 289 289 288 287 287 286 287 287 288 288 287 288 290 292 293 293 293 292 291 290 289 288 287 286 285 285 285 284 283 280 278 276 274 273 272 270 269 269 268 268 268 268 269 269 270 271
261 260 259 260 263 265 266 266 266 266 267 267 267 267 269 270 270 270 270 271 274 277 278 279 281 283 285 286 286 286 286 286 285 283 283 283 284 285 286 287 287 286 286 285 285 286 287 287 287 286 286 288 290 292 292 292 291 290 289 289 288 287 287 286 285 285 284 283 281 279 277 275 274 272 271 270 269 268 268 267 267 268 268 269 270 271
261 260 259 260 263 265 266 267 266 267 267 267 267 268 269 268 266 267 270 274 277 278 279 280 282 283 284 284 284 285 285 285 284 284 284 285 285 286 287 287 287 287 287 287 288 288 287 286 285 285 286 288 290 290 290 290 289 288 288 287 287 286 286 285 284 284 282 281 280 279 278 277 275 274 273 271 270 269 269 268 269 269 270 270 271 272
261 261 261 262 264 266 266 266 265 266 266 266 268 268 266 265 267 271 274 277 278 278 279 280 280 282 283 283 284 284 284 283 283 284 286 286 287 288 288 289 289 289 290 290 289 288 286 285 285 286 287 287 288 288 288 287 287 286 286 286 285 285 284 283 282 281 280 279 279 278 278 278 277 276 275 274 273 272 271 271 271 272 273 273 273 274
260 261 262 263 265 265 265 265 266 267 266 267 267 266 265 267 271 273 275 277 279 279 279 279 280 282 283 283 283 282 282 283 284 285 285 286 286 287 288 290 290 291 290 289 288 286 286 286 286 286 286 287 287 287 287 287 287 286 286 285 285 284 283 282 281 280 279 279 278 278 278 278 278 277 277 277 276 275 274 273 273 275 276 276 276 276
257 259 261 263 264 265 265 266 268 269 267 265 264 264 266 269 272 274 276 278 278 277 278 279 282 285 286 284 282 281 282 284 284 284 284 284 284 285 288 290 291 290 289 287 286 286 286 286 286 286 286 287 287 287 287 286 286 285 285 285 284 284 283 282 281 280 280 280 280 280 280 279 278 278 278 278 277 276 275 275 275 276 278 279 279 279
256 258 261 264 265 265 267 269 270 268 265 263 263 265 268 270 272 273 274 276 275 275 276 279 283 286 285 281 280 281 283 285 286 286 285 284 284 286 289 290 291 290 289 288 287 287 287 287 287 287 287 287 287 287 286 286 285 285 285 284 284 283 283 282 281 281 281 281 281 281 280 279 278 278 278 278 278 278 279 279 279 280 281 282 283 283
258 261 263 264 264 265 267 267 266 264 263 264 264 266 269 270 272 273 274 276 276 276 277 278 280 281 280 279 281 285 288 290 290 289 287 286 287 288 289 290 290 289 288 288 287 287 287 287 287 287 288 288 288 287 287 287 287 287 287 286 286 285 284 284 284 283 283 282 282 281 280 280 280 280 280 281 282 282 283 283 283 284 284 284 285 284
262 264 265 266 266 267 268 268 267 265 264 264 265 268 271 272 274 274 276 277 276 276 277 277 278 279 279 281 286 289 290 291 291 289 287 286 287 288 289 289 289 288 287 287 286 286 286 286 287 287 287 287 287 287 287 287 287 287 287 287 287 286 285 285 284 284 284 284 284 284 284 284 284 284 284 285 285 285 285 285 285 285 285 285 285 285
263 265 267 268 269 269 269 268 267 266 266 268 271 275 275 276 277 275 274 275 274 276 278 279 279 280 280 282 286 286 284 285 285 285 285 286 286 286 287 287 288 287 287 286 286 286 286 286 286 287 287 287 287 287 286 287 287 287 288 288 287 286 285 285 284 284 284 284 284 285 285 285 285 286 286 286 286 286 286 286 286 286 287 287 287 286
264 265 266 267 268 269 269 269 270 271 274 275 276 276 275 275 274 273 273 275 276 278 278 276 276 276 276 278 280 280 281 282 283 283 284 284 284 285 285 286 286 286 286 286 287 287 287 287 287 287 287 287 287 286 286 287 288 288 288 287 286 285 285 284 284 284 284 284 285 285 286 286 286 286 287 287 287 288 288 288 289 289 289 288 288 288
264 264 264 266 268 271 272 272 273 274 275 275 275 275 275 275 274 274 275 276 277 277 275 272 272 272 274 277 279 279 280 281 282 283 283 284 284 284 285 285 285 286 286 287 287 287 287 287 287 287 287 286 286 286 286 287 287 287 286 285 285 284 284 284 285 285 286 286 286 287 287 287 288 288 288 288 289 289 290 290 290 290 290 289 289 288
266 266 267 268 270 270 271 272 273 274 274 275 276 276 275 274 274 275 275 276 277 276 273 274 275 273 276 279 279 280 281 281 282 284 284 284 284 284 285 285 285 286 286 287 287 286 286 285 285 285 285 286 286 286 286 287 287 286 285 285 285 285 286 286 287 287 288 288 288 288 288 288 289 289 289 290 290 290 290 290 290 290 290 290 289 289
267 267 268 268 268 269 270 271 273 275 275 276 275 275 275 275 276 277 277 279 278 273 272 276 276 275 279 282 281 281 282 284 285 285 284 283 283 284 284 284 285 285 286 286 285 284 284 284 284 285 285 285 285 285 286 286 286 285 285 286 286 286 287 288 288 288 288 288 288 288 289 289 290 290 290 290 290 291 291 291 291 291 290 290 289 289
264 266 268 269 270 272 272 272 271 270 269 268 269 271 274 276 276 276 275 276 274 270 272 276 276 277 283 284 281 283 284 285 285 283 282 282 283 284 284 284 285 285 284 284 283 284 284 284 284 284 284 284 285 285 286 285 285 285 286 286 287 287 288 288 288 288 288 288 289 289 289 290 290 290 290 290 291 291 291 291 291 291 291 290 290 290
265 267 269 269 269 270 270 270 267 264 263 263 265 270 273 273 273 273 273 274 272 271 274 277 277 280 284 283 282 284 284 283 282 281 282 284 284 284 284 284 285 284 284 284 284 284 284 284 284 285 285 285 285 285 285 285 285 286 286 287 287 288 288 288 288 288 288 289 289 289 289 289 290 290 291 291 291 292 292 291 291 291 291 291 291 291
264 265 267 266 265 265 267 266 263 263 263 263 267 271 272 272 273 275 276 276 274 275 277 278 278 281 284 283 283 282 281 281 282 283 284 284 284 284 284 284 284 284 284 284 284 284 284 285 285 285 285 285 285 286 286 286 286 286 287 287 287 288 288 288 288 288 289 289 289 289 289 290 290 291 292 292 292 292 292 292 291 291 291 291 291 290
262 263 264 263 261 262 265 264 261 261 261 263 270 275 274 274 277 278 277 276 277 279 280 279 280 283 284 282 280 280 281 282 283 283 283 283 283 284 283 283 283 283 283 283 283 284 284 284 284 284 285 285 285 285 285 286 286 287 287 287 288 288 288 288 288 288 288 289 289 289 290 291 291 292 292 292 292 292 292 291 291 291 290 290 290 290
262 261 261 260 259 260 262 261 260 259 257 262 272 276 274 275 278 278 277 278 280 282 280 280 281 282 281 279 278 280 281 281 281 281 282 282 282 282 282 282 282 282 282 282 283 283 283 283 284 284 284 285 285 285 285 286 287 287 288 288 288 288 288 288 288 289 289 289 290 291 291 292 292 292 292 292 292 291 291 291 291 291 290 290 291 291
260 260 259 259 259 260 261 261 263 263 260 265 272 273 271 274 276 277 279 281 282 282 280 279 280 279 279 279 279 280 279 280 280 281 281 281 281 281 282 282 282 282 282 282 283 283 283 283 284 284 285 285 285 285 286 287 288 288 288 288 288 288 288 289 289 290 290 291 291 291 292 292 292 292 292 292 292 292 291 291 291 291 292 292 292 292
259 259 260 260 262 265 266 266 268 268 266 269 272 271 271 274 276 279 282 283 283 282 280 279 279 280 280 281 281 281 281 281 281 280 281 281 282 282 282 282 282 283 283 284 284 284 284 284 285 285 286 286 286 286 287 288 288 288 288 288 288 289 289 290 290 291 291 291 292 292 292 292 292 292 292 292 292 292 292 292 293 293 293 293 293 293
257 259 262 265 268 271 272 272 274 274 273 273 274 274 276 279 281 284 284 283 282 282 281 281 281 281 282 282 282 281 281 281 281 282 283 283 283 283 282 283 284 285 285 285 285 285 285 285 286 286 286 286 287 287 288 288 288 288 288 288 289 289 290 290 291 291 291 292 292 292 292 292 292 292 293 292 293 293 293 293 293 293 293 293 293 294
257 260 265 270 273 276 278 278 279 279 278 277 278 280 283 285 286 285 283 282 284 284 283 282 282 283 283 282 281 281 281 282 284 285 285 283 282 283 284 284 285 285 285 285 285 285 285 286 286 286 286 287 287 288 288 288 288 289 289 289 290 290 290 291 291 291 292 292 292 292 292 292 293 293 293 292 292 292 293 293 293 293 293 293 294 294
259 263 268 274 278 279 280 281 281 281 281 281 283 286 287 286 285 284 282 283 285 285 283 282 283 284 283 281 281 282 283 284 285 285 283 282 282 284 284 285 285 284 284 285 285 285 286 286 286 286 287 288 288 289 289 289 289 290 290 290 291 291 291 291 292 292 292 291 291 291 292 292 292 292 292 292 292 292 293 293 293 293 294 294 294 295
262 266 272 277 280 280 281 282 282 282 283 284 286 287 286 284 284 282 279 281 284 283 281 280 281 280 280 281 282 283 283 283 284 283 281 282 284 284 284 284 284 284 284 285 285 286 286 286 287 288 288 289 289 290 290 290 290 290 291 291 291 291 292 291 291 291 291 291 291 291 291 291 291 291 291 291 292 292 293 293 293 294 294 294 294 295
266 270 274 277 279 280 281 281 280 281 283 285 286 285 284 283 282 278 277 281 284 281 278 277 278 279 280 281 281 281 281 282 282 282 282 283 284 284 284 284 284 284 285 285 286 286 287 288 289 289 290 290 290 291 290 290 291 291 291 291 291 291 291 290 290 290 290 290 290 290 290 290 290 290 290 291 292 292 293 293 293 294 294 294 295 295
268 271 274 276 278 279 279 278 277 278 281 284 283 282 281 281 278 277 278 281 281 278 278 279 280 280 281 280 279 280 281 282 283 283 283 284 284 284 284 284 285 285 286 286 287 288 289 290 290 290 291 291 291 291 290 291 291 291 291 291 290 290 290 290 290 289 289 289 289 289 289 289 289 290 291 291 292 293 293 293 293 293 294 294 295 296
268 270 272 273 275 276 276 276 275 277 281 284 282 279 278 276 275 276 278 278 278 279 280 281 280 279 278 278 279 280 280 282 283 283 284 284 284 284 285 285 286 287 287 288 289 290 290 290 291 291 291 291 291 290 291 291 291 290 290 290 289 289 289 289 289 289 289 289 289 289 289 290 290 291 292 292 293 293 293 293 293 294 294 295 296 297
269 270 271 272 274 275 275 274 275 278 282 282 278 276 276 275 276 277 278 278 278 279 279 278 277 277 278 279 280 280 281 282 283 283 284 284 285 285 286 286 287 288 289 289 290 290 290 291 291 291 291 290 290 291 291 291 290 289 288 288 288 288 289 289 289 289 290 290 290 291 291 292 292 293 293 294 294 294 294 294 294 295 296 297 297 298
269 270 272 273 274 274 274 275 277 279 280 278 277 277 278 277 277 278 278 278 278 277 276 276 277 278 279 280 281 282 283 283 283 283 284 285 286 286 287 287 288 288 289 289 289 290 290 291 291 290 290 291 291 291 290 289 288 287 287 287 287 288 289 290 290 291 291 292 292 293 293 294 294 294 294 294 294 294 294 295 295 297 298 298 299 299
271 272 273 274 274 274 275 276 277 278 279 279 279 278 277 277 278 278 278 277 276 276 276 277 278 279 280 281 282 283 284 284 284 285 285 286 287 287 288 288 288 288 289 289 290 290 291 290 290 291 291 292 291 290 289 288 287 287 286 287 288 289 290 291 292 293 293 294 294 294 295 295 295 294 295 295 295 295 296 296 297 298 299 300 300 301
271 272 273 273 273 274 274 276 277 278 279 279 278 276 277 278 278 277 276 275 276 277 278 278 279 280 281 282 283 284 284 285 285 286 287 287 287 287 288 288 289 289 290 290 291 291 291 291 291 292 292 291 290 289 288 287 287 287 287 288 289 291 292 293 293 294 294 294 295 295 295 295 295 295 295 295 295 296 296 297 298 299 300 300 301 301
270 271 271 272 272 273 274 276 277 277 276 276 276 277 277 276 275 275 275 275 276 277 279 280 281 281 282 283 284 284 285 286 287 287 287 287 288 288 289 290 291 291 292 292 292 292 292 292 292 292 291 290 289 288 287 287 287 287 288 290 292 293 293 294 294 294 295 295 295 295 295 295 295 295 295 295 295 296 296 297 298 299 300 301 301 301
269 269 269 271 272 273 274 275 275 275 276 276 275 274 274 273 274 274 275 276 277 279 280 282 282 283 284 284 285 285 286 287 288 288 288 289 290 290 291 291 292 293 294 294 294 293 293 293 292 292 291 289 288 287 287 287 288 289 290 292 293 293 293 294 295 296 296 296 296 296 296 296 295 295 295 295 295 296 297 298 299 300 301 301 301 301
267 267 269 271 272 273 275 276 275 275 274 272 271 271 272 273 274 275 276 278 279 281 282 283 283 284 285 285 286 288 289 289 289 290 290 291 292 292 293 293 294 295 296 296 295 294 294 293 292 292 290 289 288 288 288 288 289 291 292 293 293 294 295 296 297 298 298 298 298 297 297 297 297 297 296 296 296 296 297 298 299 300 301 301 301 301
266 268 271 272 273 274 274 274 273 271 270 270 271 272 273 275 276 277 279 280 281 282 283 284 284 285 286 287 289 289 290 291 291 291 291 292 293 294 295 296 297 298 298 297 296 295 294 293 292 291 290 289 288 288 289 290 291 292 294 295 295 296 297 298 299 300 300 300 300 299 299 299 299 299 298 298 297 297 298 299 300 300 300 300 300 301
268 270 272 272 273 273 271 270 270 270 271 271 273 274 276 277 278 279 281 282 282 283 284 284 285 286 287 289 289 290 291 292 291 291 292 293 294 296 298 299 300 300 300 298 297 296 294 292 291 290 289 288 288 289 290 291 293 295 296 297 297 297 298 300 301 302 303 303 303 302 302 301 301 301 300 299 298 298 299 300 300 300 300 300 300 301
Height
5816 5815 5817 5820 5820 5816 5814 5815 5816 5816 5816 5816 5816 5816 5816 5816 5818 5820 5816 5814 5812 5812 5814 5815 5814 5816 5818 5814 5814 5814 5815 5814 5814 5814 5814 5814 5814 5813 5813 5812 5812 5812 5812 5812 5812 5811 5810 5810 5810 5810 5810 5809 5809 5808 5808 5808 5808 5807 5806 5806 5806 5804 5804 5803 5802 5801 5800 5799 5798 5796 5795 5794 5793 5792 5792 5791 5790 5788 5788 5786 5785 5784 5783 5782 5782 5780
5811 5811 5816 5817 5814 5812 5812 5812 5812 5812 5812 5812 5812 5812 5812 5813 5814 5814 5812 5810 5810 5808 5809 5811 5810 5812 5812 5810 5810 5812 5812 5811 5810 5810 5811 5810 5810 5810 5810 5809 5809 5808 5808 5808 5808 5808 5807 5806 5806 5806 5806 5806 5806 5805 5804 5804 5803 5802 5802 5802 5801 5800 5800 5799 5798 5796 5796 5794 5793 5792 5790 5788 5788 5786 5786 5784 5784 5783 5782 5781 5780 5780 5778 5778 5776 5776
5806 5808 5812 5812 5808 5808 5809 5808 5808 5808 5808 5808 5808 5808 5808 5810 5810 5808 5808 5806 5806 5804 5804 5806 5806 5808 5808 5806 5806 5807 5806 5806 5806 5806 5806 5806 5806 5806 5806 5806 5806 5806 5805 5804 5804 5804 5804 5803 5803 5802 5802 5802 5802 5801 5800 5800 5799 5798 5797 5796 5796 5795 5794 5794 5792 5792 5790 5789 5788 5786 5784 5783 5782 5780 5780 5778 5778 5777 5776 5775 5774 5774 5773 5772 5772 5770
5802 5805 5808 5806 5805 5806 5804 5804 5804 5804 5804 5804 5804 5803 5804 5806 5804 5802 5804 5802 5802 5800 5800 5800 5800 5802 5804 5802 5803 5802 5802 5802 5801 5801 5802 5802 5802 5802 5802 5802 5802 5802 5802 5801 5800 5800 5800 5799 5799 5798 5798 5798 5797 5796 5796 5795 5794 5793 5792 5791 5790 5790 5788 5788 5786 5785 5784 5783 5782 5780 5779 5778 5776 5775 5774 5773 5772 5771 5770 5768 5768 5768 5766 5766 5766 5764
5797 5800 5802 5802 5802 5800 5800 5800 5800 5800 5800 5800 5799 5800 5800 5802 5800 5798 5798 5798 5798 5796 5797 5796 5795 5796 5800 5799 5799 5799 5798 5798 5797 5797 5798 5798 5798 5798 5798 5798 5798 5798 5798 5797 5796 5796 5796 5795 5794 5794 5794 5794 5792 5792 5791 5790 5789 5788 5787 5786 5784 5784 5782 5782 5780 5779 5778 5776 5776 5774 5773 5772 5770 5770 5768 5767 5766 5765 5764 5762 5762 5760 5760 5759 5758 5758
5793 5796 5798 5798 5797 5796 5795 5796 5796 5797 5796 5795 5795 5796 5796 5796 5796 5794 5794 5794 5792 5792 5792 5792 5790 5791 5794 5796 5795 5796 5794 5793 5793 5794 5794 5794 5794 5794 5794 5794 5794 5794 5793 5792 5792 5792 5790 5790 5790 5790 5788 5788 5786 5786 5785 5784 5784 5782 5781 5780 5779 5778 5776 5776 5774 5773 5772 5770 5769 5768 5767 5766 5765 5764 5762 5761 5760 5759 5758 5756 5755 5754 5754 5752 5752 5751
5789 5793 5793 5792 5792 5792 5790 5791 5793 5793 5790 5790 5792 5793 5792 5792 5791 5790 5790 5789 5788 5788 5788 5788 5786 5786 5788 5790 5792 5792 5790 5789 5790 5790 5790 5790 5789 5790 5789 5789 5788 5788 5788 5787 5786 5786 5786 5786 5785 5784 5783 5782 5780 5780 5778 5778 5777 5776 5775 5774 5772 5772 5770 5770 5768 5767 5766 5764 5763 5762 5761 5760 5758 5758 5756 5755 5754 5752 5752 5750 5749 5748 5747 5746 5745 5744
5786 5788 5787 5786 5786 5786 5786 5787 5788 5787 5785 5786 5788 5788 5788 5787 5786 5786 5786 5784 5784 5783 5782 5782 5784 5784 5784 5784 5786 5786 5786 5786 5787 5786 5786 5786 5785 5785 5784 5784 5784 5783 5782 5782 5782 5781 5780 5780 5780 5778 5777 5776 5774 5773 5772 5770 5769 5768 5768 5766 5766 5764 5764 5762 5762 5760 5759 5758 5756 5756 5754 5753 5752 5751 5750 5748 5748 5746 5745 5744 5742 5742 5740 5740 5739 5738
5781 5781 5782 5782 5782 5782 5782 5782 5782 5781 5780 5782 5782 5783 5782 5782 5781 5781 5781 5780 5780 5778 5778 5778 5780 5780 5779 5778 5778 5779 5780 5782 5784 5782 5782 5781 5780 5780 5780 5779 5778 5778 5777 5777 5776 5776 5775 5774 5773 5772 5770 5770 5768 5767 5766 5764 5762 5760 5760 5758 5758 5756 5756 5756 5754 5754 5752 5751 5750 5748 5747 5746 5745 5744 5742 5742 5740 5740 5738 5737 5736 5735 5734 5733 5732 5731
5776 5776 5777 5777 5776 5778 5778 5777 5776 5776 5776 5777 5778 5778 5778 5777 5776 5776 5776 5776 5775 5774 5774 5776 5777 5776 5774 5772 5772 5773 5775 5776 5776 5778 5778 5777 5776 5775 5774 5774 5773 5772 5772 5772 5772 5770 5770 5768 5767 5766 5765 5764 5762 5760 5760 5758 5756 5754 5752 5751 5750 5750 5748 5748 5748 5746 5745 5744 5742 5742 5740 5739 5738 5737 5736 5735 5734 5732 5732 5730 5729 5728 5727 5726 5725 5724
5770 5770 5771 5772 5772 5772 5772 5772 5772 5772 5772 5772 5773 5772 5772 5772 5771 5771 5770 5770 5770 5769 5771 5773 5772 5771 5768 5766 5766 5768 5769 5769 5768 5769 5770 5770 5770 5770 5769 5768 5768 5767 5767 5766 5766 5766 5764 5763 5761 5760 5758 5756 5755 5753 5752 5750 5749 5748 5746 5745 5743 5742 5741 5740 5740 5739 5738 5736 5736 5734 5733 5732 5731 5730 5730 5728 5727 5726 5724 5723 5722 5720 5720 5718 5717 5716
5764 5764 5766 5766 5766 5766 5767 5768 5768 5768 5768 5768 5768 5768 5767 5766 5766 5766 5766 5766 5766 5766 5768 5768 5766 5766 5764 5762 5763 5762 5762 5763 5762 5761 5760 5762 5762 5762 5762 5762 5761 5761 5761 5760 5760 5758 5757 5755 5754 5752 5750 5749 5748 5746 5744 5743 5742 5741 5740 5738 5736 5734 5733 5732 5732 5731 5730 5729 5728 5727 5726 5726 5724 5724 5722 5722 5720 5718 5718 5716 5714 5712 5712 5710 5709 5708
5758 5759 5759 5760 5760 5762 5762 5762 5763 5764 5764 5764 5763 5763 5762 5762 5761 5760 5761 5762 5762 5762 5762 5761 5760 5759 5758 5760 5760 5760 5758 5758 5756 5756 5754 5754 5753 5752 5752 5752 5752 5752 5752 5752 5751 5750 5748 5747 5746 5744 5743 5742 5740 5739 5737 5736 5734 5733 5732 5730 5729 5728 5726 5724 5723 5722 5722 5721 5720 5720 5719 5718 5718 5716 5715 5714 5712 5710 5710 5708 5706 5704 5703 5701 5700 5698
5752 5753 5754 5754 5756 5756 5756 5758 5758 5758 5758 5758 5758 5758 5757 5756 5756 5756 5758 5758 5758 5757 5757 5756 5754 5754 5754 5756 5756 5756 5754 5754 5752 5752 5750 5750 5748 5746 5746 5745 5745 5744 5744 5744 5742 5742 5740 5740 5739 5738 5736 5735 5733 5732 5730 5728 5727 5726 5724 5722 5721 5720 5718 5716 5714 5714 5712 5712 5712 5712 5711 5710 5709 5708 5707 5706 5704 5702 5700 5700 5698 5696 5694 5692 5690 5688
5746 5748 5750 5750 5750 5752 5752 5752 5752 5752 5752 5752 5752 5752 5752 5752 5752 5754 5753 5752 5751 5752 5752 5752 5750 5750 5751 5752 5751 5750 5748 5748 5748 5747 5746 5744 5743 5742 5741 5741 5740 5740 5738 5737 5736 5735 5734 5734 5732 5731 5729 5728 5726 5724 5722 5720 5719 5718 5716 5714 5712 5711 5710 5708 5706 5704 5704 5704 5704 5703 5702 5702 5700 5699 5698 5696 5695 5694 5692 5690 5688 5686 5684 5682 5680 5678
5742 5743 5745 5745 5746 5746 5746 5746 5746 5746 5746 5746 5746 5746 5746 5748 5748 5748 5746 5745 5745 5746 5746 5746 5746 5746 5747 5746 5745 5744 5742 5742 5742 5740 5740 5738 5738 5737 5736 5736 5736 5734 5732 5732 5731 5730 5729 5728 5726 5724 5722 5720 5718 5716 5714 5712 5711 5710 5708 5706 5704 5703 5701 5700 5698 5697 5696 5696 5694 5694 5693 5692 5691 5690 5688 5686 5685 5684 5682 5680 5678 5677 5675 5673 5671 5669
5736 5737 5739 5740 5740 5741 5741 5742 5742 5742 5741 5741 5741 5741 5742 5744 5742 5740 5740 5740 5740 5738 5740 5742 5741 5742 5742 5740 5740 5739 5738 5736 5735 5734 5732 5732 5732 5731 5730 5730 5728 5726 5726 5726 5725 5724 5722 5720 5718 5716 5714 5713 5711 5709 5707 5705 5704 5702 5700 5698 5696 5694 5693 5692 5690 5689 5688 5687 5686 5684 5683 5682 5680 5680 5678 5676 5675 5674 5672 5670 5669 5668 5666 5664 5662 5660
5730 5731 5733 5734 5735 5736 5736 5736 5736 5736 5736 5736 5736 5738 5738 5736 5735 5734 5734 5735 5734 5732 5734 5736 5736 5736 5736 5734 5734 5733 5732 5730 5728 5728 5726 5725 5725 5724 5723 5722 5720 5720 5720 5719 5718 5716 5714 5712 5710 5709 5708 5706 5704 5702 5700 5698 5696 5694 5692 5690 5688 5686 5686 5684 5682 5681 5680 5678 5676 5675 5674 5672 5670 5670 5668 5666 5665 5664 5662 5660 5660 5658 5656 5655 5653 5652
5726 5726 5728 5728 5730 5730 5731 5731 5730 5730 5730 5732 5732 5732 5732 5730 5729 5730 5728 5729 5729 5726 5728 5730 5732 5731 5729 5728 5727 5726 5725 5723 5722 5722 5721 5720 5718 5717 5716 5715 5714 5714 5714 5712 5710 5708 5706 5704 5703 5701 5699 5697 5695 5693 5691 5689 5688 5686 5684 5682 5680 5678 5678 5676 5674 5672 5671 5670 5668 5666 5665 5663 5662 5660 5658 5656 5655 5654 5652 5651 5650 5648 5647 5646 5644 5642
5720 5721 5722 5724 5725 5726 5726 5725 5725 5726 5726 5727 5726 5726 5726 5724 5724 5724 5723 5724 5723 5720 5720 5723 5724 5724 5723 5722 5720 5718 5720 5718 5716 5716 5715 5714 5712 5711 5710 5709 5708 5707 5706 5704 5702 5700 5698 5696 5694 5692 5690 5688 5686 5684 5682 5680 5678 5677 5675 5674 5672 5670 5669 5667 5666 5664 5662 5660 5658 5657 5656 5654 5652 5650 5648 5647 5646 5644 5643 5642 5640 5638 5637 5635 5634 5632
5715 5716 5717 5718 5719 5719 5720 5720 5720 5721 5720 5720 5720 5720 5720 5718 5718 5718 5718 5718 5716 5714 5714 5714 5714 5718 5716 5712 5711 5712 5714 5712 5710 5710 5708 5706 5706 5704 5703 5702 5700 5699 5697 5696 5694 5692 5690 5688 5686 5684 5682 5679 5677 5675 5674 5671 5669 5668 5666 5665 5664 5662 5660 5658 5656 5654 5653 5651 5650 5648 5646 5644 5642 5641 5640 5638 5637 5636 5634 5632 5630 5628 5626 5624 5622 5620
5710 5710 5712 5712 5712 5712 5714 5714 5714 5713 5712 5712 5712 5714 5714 5714 5713 5710 5710 5712 5710 5707 5708 5704 5704 5710 5710 5704 5704 5706 5705 5704 5703 5702 5700 5698 5698 5696 5696 5694 5692 5690 5688 5687 5686 5684 5681 5679 5677 5675 5673 5670 5668 5665 5663 5661 5660 5658 5656 5656 5654 5652 5650 5648 5646 5644 5643 5642 5640 5638 5636 5635 5634 5632 5631 5629 5627 5625 5623 5622 5620 5617 5614 5612 5610 5608
5704 5704 5704 5704 5706 5706 5706 5706 5706 5706 5706 5706 5706 5708 5709 5708 5707 5704 5702 5704 5703 5699 5700 5695 5692 5700 5704 5699 5698 5698 5695 5694 5695 5694 5692 5691 5690 5689 5687 5684 5682 5682 5680 5678 5677 5674 5672 5670 5668 5666 5664 5661 5658 5656 5654 5652 5650 5649 5648 5647 5645 5642 5640 5638 5637 5635 5634 5632 5630 5628 5627 5626 5624 5622 5621 5619 5616 5614 5612 5610 5608 5606 5604 5601 5598 5596
5697 5696 5698 5698 5698 5698 5698 5698 5699 5698 5699 5700 5701 5703 5702 5700 5701 5698 5695 5695 5694 5692 5692 5686 5682 5689 5694 5694 5693 5690 5688 5688 5688 5688 5687 5686 5684 5682 5678 5676 5674 5672 5671 5669 5668 5666 5664 5662 5660 5658 5655 5652 5649 5647 5644 5643 5642 5641 5640 5638 5636 5634 5632 5630 5628 5626 5625 5624 5622 5620 5618 5616 5614 5612 5610 5608 5606 5604 5601 5599 5597 5594 5592 5589 5586 5583
5690 5690 5692 5691 5690 5690 5690 5690 5692 5694 5694 5695 5696 5696 5694 5694 5694 5690 5688 5686 5683 5683 5685 5679 5675 5680 5686 5688 5686 5683 5682 5682 5681 5680 5681 5679 5676 5673 5670 5668 5666 5664 5662 5660 5658 5657 5655 5652 5650 5648 5646 5643 5640 5637 5636 5635 5634 5633 5632 5630 5627 5625 5623 5621 5620 5618 5616 5614 5613 5610 5608 5606 5604 5602 5600 5597 5594 5592 5590 5586 5584 5581 5578 5576 5573 5570
5682 5682 5684 5684 5684 5684 5684 5684 5687 5689 5689 5687 5687 5687 5686 5686 5685 5682 5681 5678 5672 5673 5676 5674 5671 5675 5680 5681 5677 5675 5676 5676 5674 5672 5672 5670 5667 5664 5662 5660 5658 5656 5654 5652 5650 5649 5646 5644 5642 5640 5637 5634 5630 5628 5628 5627 5626 5624 5622 5620 5618 5616 5614 5612 5610 5608 5607 5606 5604 5601 5598 5596 5594 5592 5589 5586 5583 5580 5578 5574 5572 5568 5566 5563 5560 5558
5674 5675 5678 5678 5678 5678 5678 5678 5679 5681 5680 5678 5679 5680 5679 5678 5678 5675 5672 5668 5666 5666 5666 5668 5668 5668 5672 5674 5668 5666 5668 5668 5666 5665 5663 5660 5658 5656 5654 5652 5650 5648 5646 5645 5643 5640 5637 5636 5634 5632 5628 5625 5622 5620 5620 5619 5618 5614 5612 5610 5608 5606 5604 5602 5601 5599 5597 5596 5594 5590 5588 5586 5583 5580 5578 5575 5572 5570 5566 5563 5560 5556 5553 5550 5548 5544
5667 5668 5671 5671 5671 5672 5672 5670 5670 5671 5671 5670 5670 5671 5671 5670 5668 5666 5662 5661 5663 5659 5656 5662 5664 5660 5664 5667 5660 5656 5658 5658 5656 5656 5653 5650 5649 5648 5646 5644 5642 5641 5640 5637 5634 5631 5629 5628 5626 5623 5620 5617 5614 5612 5612 5610 5608 5604 5602 5601 5599 5597 5596 5594 5592 5590 5588 5586 5583 5580 5578 5575 5572 5570 5567 5564 5562 5558 5555 5552 5548 5544 5541 5538 5534 5532
5660 5661 5664 5663 5662 5664 5664 5662 5663 5663 5663 5664 5663 5663 5664 5664 5660 5658 5656 5656 5657 5652 5650 5656 5656 5654 5660 5659 5650 5648 5650 5649 5646 5644 5642 5642 5641 5638 5636 5634 5634 5632 5630 5627 5624 5622 5621 5618 5616 5614 5612 5608 5606 5604 5602 5600 5598 5596 5594 5592 5590 5588 5586 5584 5582 5580 5578 5576 5573 5570 5567 5564 5562 5559 5556 5554 5550 5547 5544 5540 5536 5532 5528 5525 5522 5519
5652 5652 5655 5654 5652 5654 5656 5654 5654 5656 5654 5655 5656 5658 5658 5657 5653 5650 5650 5651 5648 5644 5646 5649 5646 5648 5654 5650 5644 5642 5642 5638 5636 5634 5634 5634 5632 5630 5628 5626 5626 5622 5620 5618 5616 5614 5612 5610 5608 5606 5603 5600 5598 5595 5593 5590 5588 5586 5585 5582 5581 5579 5576 5574 5572 5570 5568 5565 5562 5560 5557 5554 5551 5548 5546 5542 5539 5535 5532 5528 5524 5520 5516 5513 5510 5507
5645 5644 5646 5646 5644 5644 5648 5647 5646 5648 5646 5646 5650 5652 5650 5647 5646 5646 5644 5644 5640 5639 5642 5640 5636 5640 5646 5642 5636 5634 5630 5628 5627 5626 5625 5624 5621 5620 5619 5618 5616 5614 5610 5609 5607 5605 5603 5601 5598 5596 5594 5592 5588 5586 5584 5582 5579 5578 5576 5574 5572 5570 5567 5564 5562 5560 5558 5555 5552 5550 5546 5543 5540 5537 5534 5530 5526 5523 5519 5516 5512 5508 5505 5502 5499 5496
5638 5636 5638 5638 5634 5635 5640 5640 5637 5640 5638 5636 5641 5644 5640 5640 5642 5640 5637 5636 5635 5634 5634 5630 5627 5632 5636 5632 5626 5624 5622 5620 5620 5618 5616 5614 5612 5610 5610 5609 5606 5604 5602 5600 5599 5597 5595 5593 5590 5588 5586 5584 5580 5578 5575 5572 5570 5569 5567 5564 5562 5560 5557 5554 5552 5550 5547 5544 5542 5538 5535 5532 5529 5526 5522 5518 5515 5512 5508 5504 5501 5498 5494 5492 5489 5486
5631 5630 5630 5630 5626 5626 5632 5632 5629 5630 5626 5624 5633 5638 5635 5636 5637 5632 5628 5629 5630 5628 5624 5620 5621 5624 5624 5620 5617 5618 5616 5614 5612 5610 5608 5606 5604 5602 5601 5600 5598 5595 5594 5592 5590 5589 5587 5585 5583 5581 5578 5576 5572 5569 5566 5564 5562 5560 5557 5554 5552 5550 5547 5544 5542 5539 5536 5534 5530 5527 5524 5520 5518 5514 5511 5508 5504 5500 5496 5494 5491 5488 5485 5483 5480 5478
5624 5623 5623 5622 5618 5618 5623 5624 5621 5616 5613 5618 5628 5633 5632 5631 5628 5622 5620 5624 5624 5621 5616 5614 5614 5613 5610 5608 5608 5608 5608 5605 5603 5602 5601 5598 5596 5595 5593 5591 5588 5586 5586 5584 5582 5581 5579 5577 5575 5572 5570 5567 5564 5560 5558 5555 5553 5550 5548 5545 5542 5540 5537 5534 5531 5528 5525 5522 5518 5515 5512 5509 5506 5503 5500 5496 5492 5490 5486 5484 5481 5478 5476 5474 5472 5470
5616 5616 5614 5614 5610 5608 5612 5614 5608 5601 5606 5616 5620 5622 5624 5622 5619 5615 5614 5615 5615 5612 5608 5604 5602 5602 5600 5600 5598 5597 5596 5596 5594 5594 5592 5590 5588 5586 5584 5581 5580 5578 5578 5576 5574 5572 5570 5568 5566 5564 5561 5558 5554 5552 5549 5546 5544 5541 5538 5536 5533 5530 5527 5524 5520 5517 5514 5510 5506 5504 5500 5498 5495 5492 5488 5485 5482 5479 5476 5474 5472 5469 5467 5466 5463 5461
5609 5608 5606 5604 5602 5600 5600 5600 5596 5594 5601 5608 5606 5610 5614 5612 5608 5605 5602 5604 5606 5602 5598 5593 5590 5592 5592 5590 5588 5586 5586 5586 5585 5585 5584 5580 5578 5576 5574 5572 5572 5571 5570 5568 5566 5564 5561 5559 5558 5554 5552 5550 5546 5544 5540 5537 5534 5532 5528 5526 5522 5520 5517 5514 5510 5506 5502 5499 5496 5492 5489 5486 5484 5481 5478 5476 5472 5470 5468 5466 5463 5460 5458 5457 5454 5452
5601 5600 5598 5596 5592 5592 5590 5588 5588 5588 5590 5594 5596 5601 5604 5600 5596 5592 5588 5591 5598 5596 5588 5582 5580 5582 5583 5580 5577 5577 5576 5574 5576 5578 5574 5570 5568 5567 5566 5566 5565 5562 5561 5559 5556 5555 5552 5550 5548 5546 5543 5541 5538 5534 5531 5528 5524 5521 5518 5515 5512 5510 5506 5503 5500 5496 5492 5488 5484 5482 5479 5476 5474 5472 5468 5466 5464 5462 5460 5457 5454 5452 5450 5448 5446 5443
5593 5590 5591 5587 5582 5583 5582 5579 5579 5578 5578 5586 5592 5593 5593 5589 5585 5582 5575 5578 5590 5589 5580 5575 5574 5572 5572 5569 5568 5568 5566 5564 5568 5570 5564 5559 5560 5562 5559 5558 5556 5554 5552 5550 5548 5546 5543 5540 5539 5536 5534 5532 5528 5524 5521 5518 5514 5510 5507 5504 5501 5498 5496 5492 5489 5486 5482 5478 5474 5472 5470 5468 5466 5463 5460 5458 5456 5454 5452 5449 5446 5444 5442 5440 5438 5434
5584 5582 5582 5579 5574 5576 5574 5570 5570 5568 5570 5580 5585 5584 5582 5578 5576 5573 5564 5565 5578 5582 5573 5568 5566 5563 5562 5560 5560 5560 5558 5556 5560 5560 5555 5551 5554 5554 5552 5550 5548 5544 5542 5540 5538 5536 5534 5531 5530 5527 5524 5522 5518 5514 5510 5506 5503 5500 5496 5494 5490 5488 5485 5482 5478 5476 5472 5468 5466 5464 5462 5460 5458 5456 5453 5451 5448 5446 5444 5441 5438 5436 5433 5430 5428 5426
5575 5574 5573 5570 5568 5570 5568 5563 5562 5562 5566 5572 5574 5573 5574 5570 5567 5564 5556 5556 5566 5568 5562 5560 5557 5554 5554 5554 5552 5552 5550 5550 5551 5550 5547 5546 5546 5544 5542 5540 5538 5536 5534 5531 5529 5527 5524 5522 5520 5516 5514 5510 5507 5504 5500 5496 5492 5490 5486 5484 5480 5478 5475 5472 5468 5466 5462 5460 5458 5456 5454 5452 5450 5448 5446 5444 5442 5439 5436 5433 5430 5428 5425 5422 5420 5417
5567 5566 5564 5562 5563 5564 5560 5556 5554 5556 5563 5568 5564 5562 5566 5562 5555 5554 5552 5550 5552 5550 5550 5551 5549 5547 5547 5545 5544 5544 5544 5543 5542 5541 5540 5538 5537 5535 5533 5530 5528 5526 5524 5522 5519 5518 5515 5512 5509 5506 5504 5500 5496 5492 5488 5485 5482 5480 5476 5474 5470 5468 5465 5462 5460 5458 5455 5452 5450 5448 5447 5446 5443 5440 5438 5436 5434 5432 5428 5424 5422 5420 5416 5414 5411 5408
5560 5558 5556 5556 5556 5556 5554 5551 5546 5546 5560 5566 5556 5551 5554 5550 5543 5544 5546 5542 5540 5538 5540 5541 5540 5538 5536 5535 5536 5538 5537 5536 5535 5533 5531 5529 5528 5526 5523 5520 5518 5516 5514 5512 5510 5508 5506 5502 5499 5496 5493 5490 5486 5482 5478 5476 5472 5470 5466 5464 5461 5458 5456 5454 5452 5450 5448 5446 5444 5442 5440 5438 5436 5433 5431 5428 5426 5424 5420 5416 5413 5410 5408 5405 5402 5400
5550 5548 5546 5548 5550 5548 5545 5543 5538 5540 5554 5559 5547 5540 5542 5539 5535 5535 5534 5532 5531 5531 5530 5529 5528 5528 5527 5526 5528 5530 5530 5530 5528 5524 5522 5520 5518 5516 5513 5512 5510 5506 5504 5502 5500 5498 5496 5492 5490 5486 5482 5479 5476 5472 5470 5466 5462 5460 5457 5454 5452 5450 5449 5448 5445 5443 5441 5438 5437 5435 5433 5430 5428 5426 5423 5420 5418 5415 5412 5408 5404 5402 5399 5396 5394 5391
5538 5538 5538 5541 5542 5538 5534 5534 5534 5536 5543 5544 5538 5532 5530 5527 5526 5526 5524 5522 5521 5520 5519 5520 5520 5520 5520 5520 5520 5520 5522 5522 5518 5516 5514 5512 5509 5507 5504 5502 5500 5497 5496 5494 5490 5488 5486 5482 5480 5476 5472 5470 5467 5463 5460 5457 5454 5451 5448 5446 5445 5444 5442 5440 5438 5436 5434 5432 5430 5428 5426 5423 5420 5418 5415 5412 5410 5406 5403 5400 5396 5394 5390 5387 5384 5382
5529 5530 5532 5532 5532 5529 5526 5527 5528 5530 5532 5532 5530 5526 5520 5516 5516 5516 5514 5512 5510 5508 5509 5511 5512 5512 5512 5512 5512 5512 5512 5511 5509 5507 5506 5502 5500 5498 5495 5492 5490 5488 5486 5484 5481 5479 5476 5472 5469 5466 5463 5460 5458 5454 5451 5448 5446 5444 5442 5440 5438 5437 5436 5434 5432 5430 5427 5424 5422 5420 5418 5416 5412 5409 5406 5404 5400 5398 5394 5391 5388 5386 5382 5378 5376 5373
5522 5523 5523 5524 5524 5521 5520 5520 5522 5522 5524 5522 5519 5516 5512 5510 5508 5504 5502 5500 5500 5499 5500 5502 5504 5504 5504 5504 5504 5504 5502 5502 5500 5498 5496 5493 5491 5488 5486 5482 5480 5478 5476 5474 5471 5468 5465 5462 5460 5456 5454 5452 5448 5446 5443 5440 5438 5437 5435 5433 5432 5430 5428 5426 5424 5422 5420 5416 5414 5412 5410 5408 5404 5401 5398 5395 5392 5390 5386 5383 5380 5378 5374 5370 5368 5364
5516 5516 5514 5515 5516 5514 5513 5516 5516 5514 5514 5514 5510 5507 5506 5502 5496 5493 5492 5492 5492 5492 5492 5494 5495 5495 5495 5496 5496 5494 5494 5493 5492 5489 5486 5483 5481 5480 5476 5474 5470 5467 5464 5463 5460 5458 5454 5452 5450 5448 5446 5444 5440 5438 5436 5434 5432 5430 5428 5428 5426 5424 5422 5420 5417 5414 5412 5409 5407 5404 5402 5400 5396 5393 5390 5386 5384 5381 5378 5374 5372 5370 5366 5363 5360 5358
5510 5508 5507 5508 5508 5508 5506 5508 5508 5506 5505 5505 5502 5497 5494 5490 5486 5484 5483 5483 5484 5486 5486 5486 5485 5485 5486 5487 5486 5484 5486 5484 5482 5478 5475 5472 5471 5470 5468 5464 5461 5458 5454 5452 5450 5447 5445 5443 5442 5440 5438 5436 5433 5431 5429 5427 5426 5424 5422 5422 5420 5417 5414 5412 5410 5407 5404 5402 5400 5397 5394 5392 5388 5385 5382 5379 5376 5373 5370 5366 5364 5362 5358 5355 5352 5350
5500 5500 5503 5503 5502 5502 5500 5500 5498 5496 5494 5494 5490 5486 5484 5482 5478 5476 5475 5476 5478 5478 5478 5476 5476 5476 5476 5476 5476 5475 5476 5474 5471 5467 5464 5462 5462 5460 5458 5454 5452 5449 5446 5444 5440 5438 5436 5434 5433 5432 5430 5428 5426 5424 5422 5420 5419 5418 5416 5415 5412 5410 5408 5405 5403 5400 5398 5394 5392 5389 5386 5384 5380 5378 5374 5372 5368 5366 5362 5359 5356 5354 5352 5348 5344 5342
5494 5496 5500 5497 5494 5494 5494 5490 5485 5484 5484 5482 5480 5478 5476 5474 5470 5468 5468 5469 5468 5468 5468 5467 5466 5466 5466 5467 5466 5465 5465 5464 5462 5457 5454 5454 5452 5450 5448 5446 5444 5441 5438 5436 5433 5431 5430 5428 5426 5424 5423 5422 5420 5418 5416 5414 5412 5411 5410 5408 5406 5403 5400 5398 5396 5393 5390 5387 5384 5381 5378 5376 5372 5370 5367 5364 5361 5358 5356 5352 5348 5346 5344 5342 5338 5336
5490 5492 5493 5490 5486 5484 5482 5478 5474 5473 5474 5475 5474 5470 5467 5464 5462 5460 5460 5460 5459 5458 5458 5456 5456 5458 5459 5458 5458 5456 5456 5454 5452 5448 5446 5445 5444 5442 5440 5438 5436 5434 5432 5429 5427 5425 5423 5421 5419 5418 5416 5415 5413 5411 5410 5408 5406 5404 5403 5401 5398 5396 5394 5392 5389 5386 5383 5380 5377 5374 5372 5368 5366 5362 5360 5356 5354 5352 5350 5346 5342 5338 5336 5334 5332 5330